Hourly Weather Rudka

Today, 1 August, Sunday

Time Temperature Precipitation Wind Pressure Humidity
00:00 +18°C° 0 mm 2 mps 742 mmHg 95%
01:00 +18°C° 0 mm 2 mps 742 mmHg 96%
02:00 +18°C° 0 mm 2 mps 742 mmHg 96%
03:00 +18°C° 0 mm 2 mps 742 mmHg 96%
04:00 +18°C° 0 mm 2 mps 742 mmHg 95%
05:00 +18°C° 0 mm 2 mps 742 mmHg 95%
06:00 +19°C° 0 mm 2 mps 742 mmHg 89%
07:00 +20°C° 0 mm 2 mps 742 mmHg 83%
08:00 +21°C° 0 mm 2 mps 743 mmHg 77%
09:00 +24°C° 0 mm 2 mps 743 mmHg 69%
10:00 +26°C° 0 mm 2 mps 743 mmHg 61%
11:00 +28°C° 0 mm 2 mps 743 mmHg 53%
12:00 +29°C° 0 mm 2 mps 742 mmHg 49%
13:00 +30°C° 0 mm 2 mps 742 mmHg 44%
14:00 +31°C° 0 mm 3 mps 742 mmHg 39%
15:00 +31°C° 0 mm 3 mps 741 mmHg 40%
16:00 +31°C° 0 mm 3 mps 741 mmHg 41%
17:00 +30°C° 0 mm 3 mps 740 mmHg 42%
18:00 +29°C° 0 mm 3 mps 740 mmHg 49%
19:00 +27°C° 0 mm 3 mps 740 mmHg 56%
20:00 +25°C° 0 mm 3 mps 740 mmHg 62%
21:00 +25°C° 0.2 mm 3 mps 739 mmHg 65%
22:00 +25°C° 0.2 mm 4 mps 739 mmHg 67%
23:00 +23°C° 0.2 mm 5 mps 739 mmHg 70%

Tomorrow, 2 August, Monday

Time Temperature Precipitation Wind Pressure Humidity
00:00 +22°C° 0.2 mm 4 mps 739 mmHg 76%
01:00 +21°C° 0.2 mm 3 mps 738 mmHg 83%
02:00 +19°C° 0.2 mm 3 mps 738 mmHg 89%
03:00 +19°C° 0 mm 3 mps 737 mmHg 90%
04:00 +19°C° 0 mm 2 mps 737 mmHg 91%
05:00 +18°C° 0 mm 2 mps 737 mmHg 92%
06:00 +19°C° 0 mm 3 mps 737 mmHg 88%
07:00 +20°C° 0 mm 4 mps 738 mmHg 84%
08:00 +21°C° 0 mm 5 mps 738 mmHg 80%
09:00 +21°C° 0 mm 6 mps 738 mmHg 80%
10:00 +21°C° 0 mm 6 mps 739 mmHg 79%
11:00 +20°C° 0 mm 7 mps 740 mmHg 78%
12:00 +20°C° 0 mm 7 mps 740 mmHg 75%
13:00 +20°C° 0 mm 7 mps 741 mmHg 72%
14:00 +20°C° 0 mm 7 mps 741 mmHg 68%
15:00 +20°C° 0.1 mm 6 mps 742 mmHg 68%
16:00 +20°C° 0.1 mm 6 mps 742 mmHg 69%
17:00 +20°C° 0.1 mm 5 mps 742 mmHg 69%
18:00 +19°C° 0 mm 5 mps 743 mmHg 73%
19:00 +18°C° 0 mm 4 mps 743 mmHg 77%
20:00 +17°C° 0 mm 3 mps 743 mmHg 81%
21:00 +16°C° 0 mm 3 mps 743 mmHg 85%
22:00 +16°C° 0 mm 3 mps 744 mmHg 88%
23:00 +14°C° 0 mm 3 mps 744 mmHg 92%

Day after tomorrow, 3 August, Tuesday

Time Temperature Precipitation Wind Pressure Humidity
00:00 +14°C° 0 mm 3 mps 744 mmHg 93%
01:00 +15°C° 0 mm 2 mps 744 mmHg 94%
02:00 +15°C° 0 mm 2 mps 745 mmHg 96%
03:00 +14°C° 0 mm 2 mps 745 mmHg 96%
04:00 +13°C° 0 mm 3 mps 745 mmHg 95%
05:00 +13°C° 0 mm 3 mps 745 mmHg 95%
06:00 +16°C° 0 mm 3 mps 745 mmHg 84%
07:00 +18°C° 0 mm 4 mps 746 mmHg 73%
08:00 +19°C° 0 mm 4 mps 746 mmHg 63%
09:00 +21°C° 0 mm 4 mps 746 mmHg 56%
10:00 +22°C° 0 mm 4 mps 746 mmHg 49%
11:00 +25°C° 0 mm 4 mps 746 mmHg 42%
12:00 +23°C° 0 mm 4 mps 746 mmHg 43%
13:00 +23°C° 0 mm 4 mps 746 mmHg 45%
14:00 +23°C° 0 mm 4 mps 746 mmHg 47%
15:00 +22°C° 0 mm 3 mps 746 mmHg 47%
16:00 +22°C° 0 mm 3 mps 746 mmHg 48%
17:00 +23°C° 0 mm 2 mps 746 mmHg 49%
18:00 +21°C° 0 mm 2 mps 746 mmHg 54%
19:00 +20°C° 0 mm 1 mps 746 mmHg 58%
20:00 +18°C° 0 mm 1 mps 747 mmHg 63%
21:00 +18°C° 0 mm 1 mps 747 mmHg 65%
22:00 +16°C° 0 mm 1 mps 747 mmHg 66%
23:00 +16°C° 0 mm 1 mps 747 mmHg 68%

4 August, Wednesday

Time Temperature Precipitation Wind Pressure Humidity
00:00 +15°C° 0 mm 1 mps 747 mmHg 70%
01:00 +15°C° 0 mm 1 mps 747 mmHg 71%
02:00 +15°C° 0 mm 1 mps 747 mmHg 73%
03:00 +15°C° 0 mm 1 mps 747 mmHg 75%
04:00 +14°C° 0 mm 2 mps 747 mmHg 77%
05:00 +14°C° 0 mm 2 mps 747 mmHg 79%
06:00 +16°C° 0 mm 2 mps 747 mmHg 72%
07:00 +19°C° 0 mm 2 mps 747 mmHg 65%
08:00 +21°C° 0 mm 3 mps 747 mmHg 58%
09:00 +22°C° 0 mm 3 mps 747 mmHg 55%
10:00 +24°C° 0 mm 3 mps 747 mmHg 51%
11:00 +25°C° 0 mm 4 mps 747 mmHg 48%
12:00 +24°C° 0.6 mm 3 mps 747 mmHg 57%
13:00 +23°C° 0.6 mm 2 mps 746 mmHg 67%
14:00 +22°C° 0.6 mm 1 mps 746 mmHg 76%
15:00 +22°C° 0.9 mm 1 mps 746 mmHg 79%
16:00 +20°C° 0.9 mm 2 mps 746 mmHg 82%
17:00 +20°C° 0.9 mm 3 mps 745 mmHg 85%
18:00 +19°C° 0.8 mm 3 mps 745 mmHg 89%
19:00 +18°C° 0.8 mm 3 mps 745 mmHg 92%
20:00 +17°C° 0.8 mm 3 mps 745 mmHg 96%
21:00 +17°C° 0.1 mm 2 mps 745 mmHg 96%
22:00 +17°C° 0.1 mm 2 mps 745 mmHg 97%
23:00 +16°C° 0.1 mm 2 mps 745 mmHg 98%

5 August, Thursday

Time Temperature Precipitation Wind Pressure Humidity
00:00 +16°C° 0 mm 1 mps 745 mmHg 97%
01:00 +16°C° 0 mm 1 mps 745 mmHg 97%
02:00 +16°C° 0 mm 1 mps 745 mmHg 97%
03:00 +16°C° 0 mm 1 mps 745 mmHg 97%
04:00 +15°C° 0 mm 1 mps 745 mmHg 96%
05:00 +15°C° 0 mm 1 mps 745 mmHg 96%
06:00 +16°C° 0 mm 1 mps 745 mmHg 92%
07:00 +19°C° 0 mm 1 mps 745 mmHg 88%
08:00 +20°C° 0 mm 1 mps 745 mmHg 84%
09:00 +22°C° 0 mm 1 mps 745 mmHg 76%
10:00 +23°C° 0 mm 1 mps 745 mmHg 67%
11:00 +25°C° 0 mm 1 mps 745 mmHg 58%
12:00 +26°C° 0 mm 1 mps 744 mmHg 55%
13:00 +27°C° 0 mm 1 mps 744 mmHg 51%
14:00 +28°C° 0 mm 1 mps 744 mmHg 48%
15:00 +28°C° 0 mm 1 mps 743 mmHg 48%
16:00 +28°C° 0 mm 1 mps 743 mmHg 47%
17:00 +28°C° 0 mm 1 mps 743 mmHg 47%
18:00 +26°C° 0.1 mm 1 mps 742 mmHg 55%
19:00 +24°C° 0.1 mm 1 mps 742 mmHg 63%
20:00 +21°C° 0.1 mm 2 mps 741 mmHg 71%
21:00 +21°C° 0.3 mm 2 mps 741 mmHg 76%
22:00 +20°C° 0.3 mm 2 mps 741 mmHg 81%
23:00 +19°C° 0.3 mm 2 mps 741 mmHg 85%

6 August, Friday

Time Temperature Precipitation Wind Pressure Humidity
00:00 +19°C° 5.2 mm 2 mps 741 mmHg 90%
01:00 +19°C° 5.2 mm 3 mps 740 mmHg 94%
02:00 +18°C° 5.2 mm 3 mps 740 mmHg 98%
03:00 +18°C° 0.6 mm 3 mps 739 mmHg 98%
04:00 +18°C° 0.6 mm 3 mps 739 mmHg 98%
05:00 +18°C° 0.6 mm 3 mps 738 mmHg 98%
06:00 +19°C° 0.1 mm 2 mps 738 mmHg 96%
07:00 +19°C° 0.1 mm 2 mps 738 mmHg 95%
08:00 +21°C° 0.1 mm 1 mps 738 mmHg 93%
09:00 +20°C° 0.3 mm 2 mps 739 mmHg 92%
10:00 +20°C° 0.3 mm 2 mps 739 mmHg 91%
11:00 +20°C° 0.3 mm 2 mps 739 mmHg 90%
12:00 +20°C° 0.1 mm 2 mps 739 mmHg 90%
13:00 +20°C° 0.1 mm 3 mps 739 mmHg 90%
14:00 +20°C° 0.1 mm 3 mps 739 mmHg 90%
15:00 +20°C° 0.1 mm 3 mps 739 mmHg 88%
16:00 +21°C° 0.1 mm 3 mps 739 mmHg 86%
17:00 +21°C° 0.1 mm 3 mps 739 mmHg 84%
18:00 +20°C° 0.6 mm 3 mps 739 mmHg 88%
19:00 +19°C° 0.6 mm 2 mps 739 mmHg 92%
20:00 +19°C° 0.6 mm 2 mps 739 mmHg 95%
21:00 +18°C° 2.6 mm 3 mps 739 mmHg 96%
22:00 +18°C° 2.6 mm 3 mps 739 mmHg 97%
23:00 +18°C° 2.6 mm 3 mps 740 mmHg 97%
Show more

We Need Your Consent

Meteoprog and our Service Providers may store and access personal data such as cookies, device identifiers or other similar technologies on your device and process such data to personalise content and ads, as well as provide social media features and to analyse the traffic.

  • Store and/or access information on your device

    Cookies, device identifiers or other information can be stored or accessed on your device for the purposes indicated above.

  • Personalised ads and content, ad and content measurement, audience insights, and products development

    Ads and content can be personalised based on a profile. More data can be added to better personalise ads and content. Ad and content performance can be measured. Insights about the audience who saw the ads and content can be derived. Such data can be used to develop or improve user’s experience, systems and software.

By clicking ‘I Agree’ you will allow the use of indicated cookies, device identifiers, web beacons or other similar technologies. Your settings can be changed in the browser on your device.

For certain purposes, legitimate interests may be relied on, rather than consent. You can read more about this in our Privacy and Cookie Policy.